Hawk 7C

operational
NORAD ID: 56200 Int'l Des: 2023-054 Owner: HE360 Country: US
LEOCIRCULARRETROGRADESSO

About Hawk 7C

Description loading...

Live Position

Loading 3D Globe...

Upcoming Passes

Altitude History

Altitude vs Time

uPlot chart will show altitude changes over time

Two-Line Element Set

1 56200U 23054Y 26063.11578811 .00009679 00000-0 37771-3 0 9995
2 56200 97.2850 312.1532 0003969 63.9772 296.1875 15.26110098160990
Epoch: Mar 4, 2026 • Age: 23 hours

Current Status

Altitude 488.7 km
Velocity 7.62 km/s
Sub-Earth Point 27.74°N, 156.06°E
Launch Date Apr 15, 2023
Age 2.8 years
Type other

Technical Details

Classification Payload
Mass 31.00 kg
Dry Mass 30.00 kg
Total Mass 31.00 kg
Length 0.45 m
Diameter 0.30 m
Span 1.00 m
Shape Box + 2 pan
Manufacturer UTIAS
Bus Type Hawk2G
Phase Status In Orbit
Owner/State HE360/US

Large Constellations

Loading constellations...